Tracking 18942 objects as of 18-Jan-2018
HD Live streaming from Space Station
objects crossing your sky now

FENGYUN 1C DEB

Track FENGYUN 1C DEB now!
10-day predictions


NORAD ID: 30660
Int'l Code: 1999-025APS
Perigee: 546.0 km
Apogee: 824.1 km
Inclination: 98.4 °
Period: 98.3 minutes
Semi major axis: 7056 km
RCS: 0.0091 m2 (small)
Launch date: May 10, 1999
Source: People's Republic of China (PRC)
Launch site: Taiyaun Space Center, China (TSC)

Note: This is SATELLITE DEBRIS
aabbcc
Your satellite tracking list
Your tracking list is empty




NASA's NSSDC Master Catalog

Two Line Element Set (TLE):
1 30660U 99025APS 18017.54627253  .00000383  00000-0  62931-4 0  9990
2 30660  98.4293  38.7433 0197085 103.5812  46.8052 14.64728955583923
Source of the keplerian elements: AFSPC